RH
3 3 3 3 3 3 3 3 3 4 3 3 4 3 3 4 4 4 4 4 4 4 4 4 4 4 4 4 3 3 3 3 3 3 2 2 2 2 2 3 4 4 5 6 8 10 13 14 16 18 18 19 20 21 23 25 25 24 24 28 36 47 60 68 72 82 91 90 92 90 85 96 89 78 76 71 78 80 73 73 68 61 55 57 47 29 28 28
3 3 3 3 3 3 3 3 3 3 3 4 3 3 4 3 3 3 3 3 3 3 4 4 4 4 4 4 4 3 4 3 3 3 3 2 2 2 2 2 2 3 4 4 5 7 9 11 14 16 16 17 16 18 19 21 23 24 23 24 31 43 53 64 73 85 97 87 86 92 87 93 92 87 86 80 84 83 78 77 67 58 55 56 45 31 30 29
5 4 4 4 3 3 3 3 3 3 3 3 3 3 3 3 4 3 4 3 3 3 3 3 3 4 4 4 4 4 4 3 4 3 3 3 2 2 2 2 2 2 3 3 4 5 6 7 10 13 15 15 15 15 16 18 20 23 24 23 27 38 49 64 73 83 98 90 87 95 88 91 96 92 89 85 87 83 80 78 66 56 49 45 41 33 31 30
7 6 6 5 5 5 4 4 3 3 3 3 3 3 3 3 3 3 4 3 3 3 3 3 3 3 3 3 4 3 4 4 4 4 3 3 3 3 2 2 2 2 2 2 3 3 4 5 6 9 12 15 16 15 15 16 19 21 22 23 24 31 46 63 71 78 89 88 92 95 86 90 98 93 87 88 89 80 78 81 68 53 44 40 38 34 33 32
9 8 8 7 7 6 6 5 5 5 4 4 4 4 3 3 3 3 3 3 3 4 3 3 3 3 3 3 3 3 3 4 4 4 3 3 3 3 3 2 2 2 2 2 2 2 3 3 4 5 7 11 14 16 17 17 19 20 20 25 26 29 46 63 71 79 80 80 87 89 85 90 94 91 90 92 91 82 80 84 72 52 42 39 35 36 36 32
12 11 10 9 9 8 8 7 7 6 6 6 5 5 5 4 4 3 3 3 3 3 3 3 3 3 3 3 3 3 3 3 4 4 3 3 4 3 3 3 2 2 2 2 2 2 2 2 3 3 4 7 10 15 18 19 20 20 20 25 30 31 42 56 67 78 80 79 81 83 86 88 90 92 91 88 89 89 87 83 75 59 46 40 36 35 34 31
15 14 13 12 11 11 10 9 9 8 8 7 7 7 6 6 6 5 4 4 4 4 4 3 3 3 3 3 3 3 3 3 4 3 3 4 4 3 4 3 3 2 2 2 2 2 2 2 3 2 3 4 6 11 15 18 20 20 20 22 25 27 34 48 58 69 77 79 80 86 91 89 90 93 89 88 90 95 94 84 77 70 57 46 40 34 31 30
20 18 17 16 14 13 12 12 11 10 10 9 9 8 8 8 7 7 6 6 5 5 5 4 4 3 3 3 3 3 3 3 4 3 3 3 3 3 4 4 3 3 2 2 2 2 2 2 2 2 3 3 3 6 10 15 18 21 24 23 22 22 29 42 48 53 63 72 80 88 89 86 88 87 89 93 90 90 97 89 77 72 63 55 51 39 29 27
25 24 22 21 19 17 15 14 13 13 12 12 11 10 10 9 9 8 8 8 7 7 7 6 5 4 4 3 3 3 3 4 4 4 3 3 3 3 3 4 4 4 3 3 2 2 2 2 2 2 2 2 3 4 5 9 13 21 27 26 23 21 23 32 43 49 53 61 73 80 81 86 88 84 87 94 86 82 89 85 74 70 62 55 55 46 32 25
27 27 26 26 24 22 20 18 16 15 14 14 13 13 12 11 11 10 10 9 9 8 8 7 7 6 5 4 4 3 4 3 4 4 3 3 3 3 3 4 4 4 4 3 3 2 3 2 2 2 2 2 2 2 3 4 8 17 25 24 19 18 16 25 44 53 51 59 68 71 79 90 92 85 88 95 90 82 82 77 73 72 62 51 50 49 42 29
26 27 28 28 27 26 25 22 20 18 17 16 16 15 14 14 13 12 12 11 10 10 9 9 8 8 7 6 5 5 5 4 4 4 3 4 3 3 3 3 4 4 4 4 4 3 2 2 3 2 2 2 2 2 2 3 4 10 18 18 15 17 15 21 39 41 38 53 64 70 83 90 90 88 88 94 93 82 78 76 75 72 60 52 49 49 47 35
24 26 28 29 30 29 28 26 24 22 21 19 18 17 16 16 15 14 13 12 12 11 10 10 9 9 8 8 7 7 7 5 4 4 4 4 3 4 3 3 4 4 4 5 5 5 3 3 3 2 3 2 2 3 2 3 3 5 10 13 17 21 18 21 34 36 29 38 56 73 86 86 85 88 85 88 93 83 76 78 79 73 59 53 53 51 47 36
22 25 27 29 30 30 30 29 27 26 24 23 21 20 19 18 17 16 15 14 13 12 11 10 10 10 9 9 9 8 8 6 6 5 5 4 4 4 3 3 4 4 4 4 5 5 5 4 3 3 3 2 3 2 2 3 2 4 6 9 17 21 20 21 33 47 39 29 46 71 80 78 77 81 82 85 90 83 77 80 82 75 62 56 56 56 51 38
21 24 27 29 30 31 31 30 29 28 27 26 25 23 22 20 19 18 16 15 14 13 12 11 11 10 9 10 9 9 9 8 7 6 6 5 4 4 4 4 3 4 4 4 4 5 6 5 4 3 3 3 3 2 3 3 2 3 3 6 13 17 23 26 31 50 52 31 35 59 66 67 73 77 79 81 82 80 80 81 82 76 67 62 58 57 54 43
21 24 27 29 31 32 33 32 31 30 29 28 27 26 25 23 22 21 19 18 16 15 14 13 12 11 10 10 9 9 9 9 9 9 8 6 5 5 4 4 4 4 4 4 4 4 5 5 5 5 4 3 3 3 3 2 3 3 2 4 10 17 27 32 27 36 50 41 34 45 55 62 75 79 78 80 79 78 83 82 80 77 72 65 59 57 56 48
23 26 28 30 32 33 34 35 34 33 31 30 29 28 27 26 24 23 22 21 19 18 17 16 15 13 12 10 10 9 8 9 10 10 9 8 7 5 5 4 4 4 4 4 4 4 4 5 6 6 5 4 3 3 3 3 3 2 3 3 6 16 28 35 31 29 39 45 38 38 47 57 71 73 70 79 81 78 82 81 78 79 79 71 62 60 60 52
23 28 30 31 31 32 33 34 34 35 35 34 32 30 29 27 26 25 24 22 21 20 19 18 17 16 14 12 10 9 9 9 9 10 10 10 9 7 6 5 5 4 4 4 4 4 4 4 5 6 6 5 4 4 3 3 3 3 3 3 4 10 22 33 38 38 38 43 43 36 38 50 68 73 67 72 79 82 84 81 79 80 82 77 66 62 62 56
16 22 30 35 34 32 30 29 29 30 31 32 33 32 31 30 28 26 25 24 22 21 20 19 18 17 16 14 13 11 10 9 8 9 10 10 10 9 8 7 6 5 4 4 4 4 4 4 4 5 6 6 6 5 4 4 4 3 3 3 4 5 16 27 38 52 52 51 52 38 36 50 65 76 79 76 76 83 86 81 83 82 79 78 69 63 64 63
10 13 20 30 36 35 32 28 24 23 23 24 24 26 27 28 29 28 27 27 25 23 22 20 19 19 17 16 15 13 11 10 9 9 9 10 10 10 10 9 8 6 5 5 4 4 4 4 4 4 5 6 8 8 5 6 4 4 3 2 5 4 11 19 33 61 68 69 65 39 35 52 59 68 79 82 79 82 85 82 86 86 80 77 72 66 65 67
12 12 13 19 25 30 33 32 29 26 23 21 20 19 19 20 21 22 25 26 26 26 24 22 22 20 18 18 18 16 14 12 10 10 9 9 10 11 11 10 9 8 6 6 5 5 4 4 4 3 5 7 10 10 8 8 5 5 4 2 4 5 13 18 30 59 70 74 70 49 48 56 56 60 64 74 83 83 84 84 84 84 82 80 74 73 71 68
14 14 14 15 17 19 22 27 30 30 29 27 25 22 20 18 17 16 17 19 21 23 24 24 24 22 21 20 20 18 17 15 13 11 10 10 9 9 10 11 11 9 8 7 6 6 4 4 4 3 5 6 8 10 11 10 8 6 4 3 4 5 16 20 29 58 68 68 69 65 66 56 50 59 58 64 78 83 85 85 84 80 80 81 75 77 79 73
14 14 15 16 17 17 17 19 22 24 26 27 26 26 24 22 20 17 15 15 15 15 17 19 21 22 22 22 22 20 19 18 15 14 12 11 10 9 9 10 10 11 10 9 8 7 5 4 4 4 4 5 6 8 12 14 11 9 5 5 4 3 12 16 28 57 66 66 72 74 75 62 54 61 58 59 71 81 83 82 83 80 78 79 76 78 82 77
20 19 17 16 17 18 18 18 18 19 19 20 20 21 21 22 22 20 18 16 15 14 13 13 14 16 17 19 21 21 20 19 18 16 15 13 12 10 9 9 9 10 11 10 9 7 6 6 5 5 4 4 5 6 11 14 13 11 7 6 5 3 9 15 28 52 62 63 68 70 74 73 63 53 50 60 71 76 80 80 80 77 75 76 71 71 77 77
27 26 24 21 20 19 19 19 19 19 19 19 19 18 18 18 18 19 19 17 16 15 14 13 12 11 12 13 15 16 19 20 19 17 16 16 14 11 10 10 9 9 10 11 11 9 8 8 7 6 6 5 5 5 8 12 15 15 11 8 7 4 7 15 24 41 56 58 58 63 72 79 72 53 52 70 77 74 74 77 79 74 71 69 64 66 73 75
29 31 30 27 23 21 21 20 19 20 20 20 20 19 19 18 17 18 17 16 16 15 14 14 13 12 11 11 11 11 13 15 16 17 17 17 15 13 13 12 11 9 9 9 10 11 9 9 9 7 7 5 5 5 5 9 12 15 15 11 10 7 6 14 22 36 54 54 51 61 70 79 79 67 69 77 75 73 70 73 83 80 73 67 64 71 77 76
23 29 31 27 22 20 19 18 18 19 18 17 18 18 18 18 17 16 15 15 14 13 13 13 13 14 13 11 10 10 9 10 11 14 16 17 16 15 14 13 13 11 10 9 9 10 10 10 10 8 8 7 6 5 5 7 9 12 17 16 14 10 6 9 15 29 48 52 48 54 63 71 74 77 84 77 69 75 68 66 82 82 75 72 68 72 79 77
13 20 24 22 17 15 14 14 14 16 14 11 14 13 12 14 14 15 16 14 13 14 14 12 14 19 19 16 13 11 10 9 9 10 11 14 15 15 14 13 13 13 12 11 9 9 10 10 10 10 9 8 7 6 5 5 6 8 15 18 17 14 11 10 13 22 34 43 50 55 61 68 72 78 85 76 70 74 61 57 76 80 79 83 75 73 75 73
6 12 17 16 12 10 10 9 9 10 8 7 9 8 8 10 9 12 12 11 17 21 21 19 18 20 21 19 18 15 13 11 9 9 8 10 12 13 14 13 12 13 13 12 10 9 9 10 11 11 10 9 8 7 7 6 5 6 11 19 21 19 19 15 14 24 30 35 44 51 63 73 72 71 73 68 64 62 55 56 72 78 84 89 80 74 73 68
4 7 12 13 11 9 8 7 8 8 7 7 7 6 7 6 7 11 10 15 26 27 29 32 27 23 21 19 18 16 14 13 11 10 9 9 9 9 11 12 13 12 12 12 12 10 10 11 11 11 10 10 10 8 8 7 6 6 7 16 22 20 22 19 12 20 30 34 31 35 57 70 69 71 68 60 51 44 43 49 62 66 69 80 81 76 74 68
4 6 11 12 10 9 8 9 8 7 7 7 6 6 7 6 8 9 7 17 30 32 32 31 26 25 25 22 18 14 12 12 11 11 11 9 9 9 9 9 9 10 11 11 11 11 10 10 9 9 10 10 10 10 10 8 7 9 8 11 20 19 19 21 15 11 18 26 22 25 46 57 63 77 70 49 39 39 40 42 55 62 58 67 78 73 70 68
8 9 11 12 11 10 8 9 9 8 9 9 8 7 6 7 7 8 17 30 44 51 42 25 21 24 22 20 17 16 14 11 11 10 9 10 9 9 9 9 8 7 10 10 10 11 10 10 10 8 9 9 10 11 10 10 11 13 12 7 14 21 20 20 18 13 10 11 12 16 32 40 45 59 59 41 31 34 40 41 48 59 56 58 65 61 59 63
9 8 8 8 8 9 9 10 9 8 11 13 12 8 7 11 9 14 39 55 58 60 44 26 30 33 28 22 14 13 13 12 15 12 9 10 8 12 13 10 9 7 7 9 9 10 10 11 12 10 10 8 9 11 10 11 13 11 10 6 8 15 19 19 19 18 14 11 10 8 14 20 17 21 31 33 26 16 19 32 40 43 46 52 61 59 52 53
8 6 5 6 7 9 9 9 8 10 19 21 18 14 11 17 19 27 55 71 70 66 47 29 35 42 39 28 13 11 13 13 13 11 12 9 14 39 39 15 8 9 7 8 7 9 10 9 11 13 15 14 12 12 10 9 13 11 8 7 8 11 14 18 19 18 16 16 16 12 10 10 6 5 8 16 31 27 15 28 41 37 44 59 69 69 58 49
7 6 6 6 6 7 8 9 12 20 28 28 25 24 19 24 38 48 60 69 66 60 44 32 39 44 36 25 20 20 18 13 10 10 12 8 19 49 44 14 8 11 7 8 9 8 7 11 19 22 23 24 19 18 19 16 13 12 12 11 11 12 11 12 15 15 15 17 21 23 18 11 8 9 4 6 32 47 29 23 32 30 38 53 62 69 66 53
6 5 6 8 11 16 17 20 25 30 34 33 32 30 26 30 43 45 39 41 50 51 45 43 47 42 29 25 29 26 16 10 12 12 9 23 45 45 24 9 9 10 8 9 12 11 9 15 24 22 19 17 17 21 24 21 17 13 14 15 12 13 12 11 12 15 19 23 31 40 37 25 17 15 12 7 13 27 23 14 21 23 23 31 39 50 58 50
15 16 20 25 29 31 33 35 37 37 38 39 36 34 33 33 36 35 27 35 56 60 55 51 43 42 48 43 27 18 18 13 14 16 16 47 74 44 13 14 10 9 11 8 13 19 22 26 24 20 21 22 31 41 33 25 31 31 27 24 16 11 13 14 15 21 29 33 36 48 58 53 42 30 27 23 12 10 11 9 17 24 16 11 14 24 40 45
32 31 34 35 34 34 35 35 35 37 39 40 42 40 37 35 35 37 38 49 61 56 49 42 33 51 78 69 39 28 28 16 12 22 27 52 67 32 9 15 9 9 12 8 11 14 21 37 36 30 33 35 43 52 45 32 32 37 45 53 47 38 36 31 24 26 37 48 48 50 60 65 61 51 45 45 37 24 18 13 13 15 10 5 5 8 19 37
32 30 30 29 28 27 28 30 30 32 32 33 41 44 43 47 50 50 53 58 60 49 40 31 31 63 84 68 54 45 33 28 30 36 39 49 48 22 7 10 8 10 11 10 14 8 9 33 55 55 45 39 37 36 46 52 38 27 37 60 72 72 74 65 45 30 29 47 58 52 51 58 62 62 57 54 53 45 40 35 26 16 9 5 5 3 6 26
27 27 27 23 23 24 24 27 26 29 35 38 49 56 53 53 51 48 46 44 43 39 36 30 34 61 68 52 49 37 23 35 47 45 48 46 32 15 8 8 6 8 9 11 14 14 10 20 54 76 61 49 46 42 63 88 79 49 34 52 75 77 80 82 70 51 32 33 47 45 43 51 56 59 62 60 59 60 60 60 53 40 25 14 9 4 2 12
27 25 25 22 24 26 25 29 28 32 49 57 57 51 41 35 32 31 30 28 30 31 34 39 38 44 49 42 36 23 13 26 41 49 52 38 21 15 13 11 9 8 9 11 10 13 14 9 32 70 75 62 57 63 84 98 91 72 49 55 77 74 72 78 75 68 49 33 40 43 39 46 54 61 67 66 67 70 73 76 73 63 50 36 22 11 5 5
29 26 26 24 27 27 25 35 41 40 45 45 36 28 22 20 21 22 22 23 27 26 27 36 39 41 44 35 25 21 16 17 32 51 48 25 14 15 13 11 14 11 10 14 11 7 10 6 13 46 77 80 65 63 79 84 80 78 64 60 72 75 79 83 78 79 71 50 44 46 45 48 55 62 64 64 69 75 79 80 78 73 67 54 39 29 20 15
32 28 30 28 28 29 25 32 37 30 25 24 20 19 17 17 18 19 20 20 21 23 21 22 25 32 35 26 17 19 18 16 26 40 34 19 14 14 11 11 13 12 11 13 13 9 8 7 7 24 55 79 78 64 60 68 75 76 68 61 66 75 85 92 88 88 88 74 57 47 49 58 61 61 62 61 65 76 82 82 78 74 67 55 48 47 39 28
36 33 35 34 31 33 32 33 32 23 20 21 19 18 16 15 16 15 17 18 17 18 17 14 15 19 21 19 14 12 15 18 22 26 21 14 14 12 10 10 9 10 12 12 13 14 12 9 6 10 23 45 72 77 63 60 69 74 74 71 73 80 89 95 94 89 89 91 81 59 50 64 75 71 69 64 60 73 85 84 79 74 64 52 46 50 47 31
42 42 44 43 39 36 34 36 38 31 25 22 20 18 16 14 14 13 13 15 15 14 13 12 14 15 14 13 12 11 14 14 13 17 15 10 11 10 7 8 8 7 9 9 12 15 17 16 9 8 9 13 38 69 77 70 65 70 78 77 79 87 93 95 93 86 83 86 90 76 57 65 81 81 77 70 64 76 87 87 85 76 65 56 47 48 50 34
49 52 54 52 51 47 39 37 39 34 28 25 22 19 17 14 13 14 14 14 14 14 13 13 13 13 12 11 11 10 11 11 9 11 12 9 9 7 5 7 8 7 7 7 9 11 14 17 13 11 12 8 13 38 63 71 62 57 61 66 77 90 96 99 92 84 83 85 89 80 60 61 78 84 85 82 76 81 85 86 88 79 67 61 49 49 61 56
61 61 63 61 60 59 53 45 39 35 32 28 24 20 19 18 16 16 16 16 15 14 13 13 12 12 11 10 10 9 8 10 10 9 9 10 9 7 7 8 7 7 7 5 6 7 8 11 13 13 12 10 10 13 24 35 36 32 35 48 70 87 91 90 85 82 86 87 89 83 63 60 73 81 89 90 83 85 83 78 83 82 74 68 54 45 51 50
62 64 63 61 60 63 66 58 46 41 37 30 26 23 20 19 18 18 17 16 16 15 13 13 12 11 11 10 10 10 9 9 9 9 10 9 10 10 9 8 7 7 7 6 6 6 6 7 8 11 12 11 13 12 10 12 12 12 14 22 45 73 85 81 78 85 89 80 82 92 80 69 71 74 86 94 87 87 87 80 81 82 77 73 61 44 35 34
49 53 54 55 55 62 73 72 60 51 43 34 29 26 23 22 20 20 19 17 16 15 14 14 12 12 12 11 10 10 10 10 10 10 10 9 11 13 11 11 10 8 8 8 8 6 6 6 6 8 10 9 12 14 14 12 9 9 9 7 16 41 68 85 82 81 86 78 77 93 94 81 75 72 79 93 92 85 82 81 82 80 75 71 64 49 36 30
40 44 50 55 58 63 72 76 70 61 51 40 33 29 28 26 24 22 20 18 17 15 13 14 13 13 13 13 13 12 11 11 10 10 11 12 13 13 15 15 13 11 11 11 11 10 7 7 10 10 8 8 11 13 16 18 14 10 9 9 9 12 32 68 83 78 79 78 76 89 98 92 83 74 73 85 94 87 77 79 84 80 74 70 64 56 46 32
48 53 58 61 63 68 72 72 69 65 57 47 39 35 32 29 26 23 20 17 16 14 13 14 15 16 17 16 15 14 13 12 12 13 15 16 18 17 19 21 21 20 20 18 18 18 14 14 18 17 11 9 10 11 14 20 21 16 11 9 11 8 7 28 58 73 77 76 77 89 101 99 90 80 72 77 92 95 83 82 89 84 73 69 65 60 55 43
44 55 64 66 67 69 70 69 66 64 57 48 41 35 30 26 22 19 17 15 14 12 13 16 19 21 21 20 19 18 16 14 13 16 18 19 21 22 22 26 32 34 35 35 33 28 23 23 28 29 23 18 20 20 18 19 22 22 18 12 10 14 9 5 25 61 82 82 79 86 99 102 96 89 79 73 84 96 91 86 91 88 76 69 69 66 61 52
26 39 53 63 66 64 66 68 66 59 49 40 33 26 21 18 15 14 13 12 12 12 13 17 23 26 26 25 24 21 19 17 15 16 19 19 21 26 29 33 39 43 45 47 47 43 35 28 27 31 29 25 29 33 29 27 26 22 21 19 13 12 15 5 7 42 82 90 80 83 98 103 97 95 93 83 80 86 91 91 91 90 82 70 69 74 70 59
Wind_Speed
18 18 19 19 19 20 20 20 20 20 20 20 20 20 20 20 20 20 20 20 20 19 19 18 18 17 17 16 15 15 16 16 17 18 18 20 20 20 21 22 22 23 22 22 21 20 20 19 19 19 19 19 19 17 16 15 14 13 12 10 9 10 9 7 5 3 4 4 5 2 4 7 10 11 11 9 8 9 7 6 5 4 4 3 2 2 2 3
16 17 18 18 19 20 20 20 19 20 20 20 20 20 21 20 21 21 21 21 21 21 20 20 19 19 19 18 17 16 16 16 16 18 20 21 20 19 20 21 23 23 23 22 22 21 20 19 19 19 19 19 20 19 18 16 15 14 13 11 9 10 9 8 7 3 2 3 4 4 5 7 8 8 8 7 7 7 6 7 6 5 4 3 2 2 2 3
16 16 16 17 18 18 19 19 19 19 19 20 20 20 20 20 21 21 21 22 22 22 22 21 21 20 20 19 19 18 17 15 16 19 21 21 20 20 20 20 22 23 23 23 22 22 21 20 19 19 19 19 19 19 19 17 16 16 15 13 10 10 9 8 8 5 2 1 3 4 5 7 5 5 5 5 7 7 6 7 7 6 4 4 3 2 1 2
18 17 17 17 18 18 18 18 18 19 19 19 20 20 20 21 21 21 21 21 22 22 22 22 21 21 21 21 21 20 19 16 17 21 20 20 21 20 19 20 21 22 22 22 22 22 22 22 21 20 19 19 18 18 18 16 17 18 16 15 12 10 10 9 9 7 5 2 2 3 4 6 6 5 5 5 7 9 8 8 8 6 4 5 4 3 1 1
20 20 20 19 19 19 19 19 19 18 18 19 19 20 20 20 21 21 21 21 21 22 22 23 22 22 22 22 22 21 20 17 20 24 19 18 21 20 20 21 21 21 21 21 22 23 23 23 22 22 21 20 19 18 17 16 16 16 15 15 14 11 11 10 9 9 8 7 4 3 5 5 5 5 4 5 7 8 7 6 6 6 5 5 5 4 2 0
24 24 23 22 22 22 22 21 21 20 20 20 19 19 20 20 20 20 20 21 21 21 22 22 22 23 22 23 23 22 21 18 22 25 19 19 21 20 20 20 22 22 21 21 22 22 23 24 23 22 22 21 20 18 19 18 16 15 14 15 15 14 13 12 10 8 9 10 7 5 5 3 4 4 4 6 7 7 7 6 6 5 5 4 4 4 4 2
28 27 27 26 25 25 24 24 24 23 23 22 22 21 21 20 20 20 20 20 20 21 21 22 22 23 22 23 23 23 22 19 22 25 21 21 22 20 20 20 21 22 22 22 22 22 22 23 23 23 23 22 21 20 20 19 17 14 13 14 15 16 16 14 13 11 10 11 9 7 5 3 4 5 6 8 8 9 9 9 7 6 4 4 4 3 3 4
30 30 30 29 29 28 28 27 27 26 25 25 24 24 24 23 22 21 21 20 20 20 20 21 21 22 22 23 23 23 22 17 22 27 24 23 23 21 21 20 20 22 23 23 22 22 21 21 23 23 23 23 22 22 22 21 18 14 13 14 16 16 16 15 15 14 13 12 10 8 8 7 7 6 7 8 10 10 9 7 7 7 4 4 5 4 3 3
33 32 32 32 31 31 30 30 29 29 28 28 27 27 26 25 25 24 23 22 21 21 20 21 20 21 22 22 23 22 20 18 23 29 25 23 24 23 23 21 21 22 23 22 22 22 21 21 23 24 24 25 25 24 23 21 18 16 15 17 17 17 17 16 16 16 15 14 11 10 11 10 9 9 8 10 10 8 7 6 5 6 4 4 5 4 3 3
35 35 35 34 34 33 33 32 32 32 31 31 30 29 29 28 27 26 26 25 24 23 22 22 21 21 21 22 23 21 19 19 25 29 26 24 25 24 24 23 22 23 23 22 22 22 23 23 24 24 25 26 26 25 23 22 20 19 19 19 18 16 17 17 18 19 17 13 12 12 13 11 10 10 10 11 10 7 6 6 4 4 3 4 4 3 3 4
35 36 36 36 37 36 35 35 34 34 33 33 32 32 31 30 29 28 28 27 26 26 25 24 23 23 22 22 22 19 19 21 25 28 26 25 25 25 25 24 24 24 24 23 22 23 25 25 25 24 24 25 25 24 23 22 20 19 20 20 15 12 13 15 19 21 17 13 12 13 13 13 11 10 10 10 9 7 6 5 5 5 5 5 4 4 5 5
35 35 36 36 37 37 37 36 36 35 35 35 34 34 33 32 32 31 30 29 28 28 27 26 26 25 24 23 22 19 21 23 24 25 25 24 25 25 25 25 26 25 25 24 23 24 25 26 26 24 24 25 24 25 24 22 19 19 21 20 13 10 10 12 17 20 19 15 13 12 13 13 12 12 13 11 10 8 8 6 7 7 6 6 5 5 6 5
35 35 35 35 36 37 37 37 37 36 35 36 35 35 35 34 33 32 32 31 30 29 29 28 27 27 26 26 25 23 23 23 22 23 24 24 25 26 26 26 27 27 26 26 25 25 25 25 26 25 25 25 25 26 25 22 21 21 22 19 14 10 8 9 13 18 21 17 14 14 14 14 13 14 15 13 12 10 9 9 8 8 7 6 6 6 6 6
35 36 36 35 36 36 36 36 36 36 35 35 36 36 36 35 35 34 33 33 32 31 30 30 29 28 28 27 27 26 25 24 23 23 23 24 25 25 26 27 28 28 28 28 27 26 25 25 25 26 26 25 24 25 23 22 23 23 22 19 14 10 6 8 11 14 20 20 17 16 15 14 14 13 13 13 12 10 9 9 8 7 7 6 7 7 7 8
35 35 35 35 35 35 36 36 35 35 34 34 34 35 35 35 35 35 34 34 33 33 32 31 30 30 29 28 28 28 27 26 25 24 24 25 25 26 26 27 28 29 29 29 29 28 26 25 24 25 25 25 25 24 22 22 23 22 21 17 14 11 7 8 11 13 18 22 20 17 15 14 13 13 13 12 11 8 8 7 7 7 7 6 8 9 9 10
36 35 35 35 35 34 35 35 35 34 34 33 33 34 34 34 34 34 34 35 34 34 33 32 32 31 30 30 30 29 29 28 27 26 26 26 26 26 26 27 27 28 29 30 30 29 28 26 24 24 25 26 25 24 24 22 20 20 19 17 15 13 10 9 10 11 15 19 20 18 17 16 14 14 16 14 11 10 10 9 7 7 8 8 10 11 11 10
37 36 35 35 34 34 33 34 34 34 33 33 33 33 33 33 33 33 33 34 34 34 33 33 32 33 32 31 30 30 30 29 28 28 28 27 27 27 26 26 26 27 29 30 30 30 30 28 26 25 25 25 25 26 24 19 17 19 19 17 17 15 13 11 9 10 13 15 18 19 18 16 13 14 17 16 12 11 12 10 8 9 10 11 11 11 11 10
37 36 35 35 34 34 33 33 33 32 33 33 33 33 33 34 33 33 33 33 33 33 33 33 33 33 33 32 32 31 31 31 30 29 29 29 29 28 26 26 26 27 29 30 30 31 31 30 28 27 26 25 24 24 20 17 18 19 19 18 17 17 15 12 8 8 11 12 17 20 17 14 13 13 16 16 14 12 10 10 10 10 12 13 12 12 11 10
35 36 35 35 35 34 33 33 32 32 31 31 32 32 32 33 34 33 34 33 33 34 34 33 33 33 33 32 33 33 32 32 31 30 29 30 30 30 29 28 28 28 29 29 29 30 31 31 31 29 26 23 21 19 17 19 22 21 21 21 20 17 15 14 10 6 5 11 19 18 13 13 13 15 16 15 15 13 10 10 12 12 13 13 13 12 11 10
34 34 34 35 35 35 34 33 33 32 32 31 31 31 31 32 33 33 34 34 34 34 34 34 33 34 33 32 32 33 33 33 32 31 30 30 30 31 30 30 30 29 29 28 28 30 31 31 31 29 25 22 21 19 19 22 24 23 23 24 24 21 14 12 12 8 6 12 23 20 15 14 14 15 17 15 15 15 13 12 12 13 14 13 13 13 12 11
34 34 33 33 34 35 34 34 33 34 34 33 33 32 32 32 31 32 33 33 34 34 34 35 34 34 34 32 32 33 33 33 33 32 31 31 31 31 31 32 32 31 29 29 29 30 31 31 29 27 26 25 24 23 22 23 24 24 25 25 27 25 17 13 12 11 11 14 25 26 21 18 15 13 14 14 15 16 16 15 14 14 15 15 13 13 14 14
34 33 33 32 33 33 34 33 33 33 33 34 35 34 34 33 32 31 31 32 33 34 34 34 35 35 35 34 34 34 34 34 34 33 33 32 32 32 32 32 33 33 32 31 31 31 31 29 26 26 27 27 27 26 25 25 24 25 26 26 27 26 21 18 16 16 13 13 22 26 25 23 19 13 10 12 15 16 18 18 17 15 14 15 14 13 15 16
33 32 32 31 31 32 32 32 32 32 31 31 33 34 34 34 33 33 32 32 32 33 33 34 34 34 35 35 35 35 35 35 35 34 33 33 34 34 33 33 33 33 33 33 32 32 30 27 25 26 27 29 30 29 28 27 26 26 28 27 26 23 22 20 19 21 15 14 17 22 24 27 27 17 11 10 13 17 20 20 19 18 16 15 15 15 15 16
30 30 30 29 29 29 30 30 30 30 30 28 29 31 32 32 33 33 32 32 32 32 32 33 33 33 34 34 35 36 36 37 37 36 34 34 36 35 34 33 33 34 34 34 33 33 31 27 27 27 28 30 31 31 31 29 28 28 28 27 24 22 22 22 21 24 23 18 14 16 19 26 31 23 15 15 15 17 20 20 19 20 20 18 15 15 14 13
28 27 27 27 26 26 27 28 27 28 28 26 25 27 28 29 30 30 30 31 31 31 31 31 32 32 33 33 33 34 36 38 38 36 35 36 36 35 35 34 34 34 33 33 34 34 33 30 29 29 29 30 31 32 32 31 31 29 28 27 25 22 23 25 23 25 29 23 17 20 20 23 29 27 24 22 18 18 19 20 19 19 20 19 16 14 14 13
26 25 24 24 24 23 23 24 24 24 24 23 23 23 24 26 26 27 26 26 28 29 27 29 30 29 30 31 31 33 35 36 37 37 36 36 37 37 37 36 35 35 33 33 34 35 34 33 32 31 30 31 31 32 33 33 33 31 29 27 26 23 23 26 26 27 33 29 24 28 28 25 27 27 27 26 20 18 19 19 18 18 18 18 17 15 16 14
24 23 22 21 21 20 20 19 21 22 19 18 20 19 20 22 22 23 22 22 25 25 23 25 25 24 26 28 29 30 31 31 34 37 36 37 38 37 37 38 37 37 36 35 35 35 35 34 34 33 33 33 32 32 32 34 34 33 32 29 27 25 23 25 27 29 34 35 33 30 30 31 31 26 25 27 23 19 20 18 15 15 16 17 17 16 15 15
23 22 21 20 19 18 17 17 18 19 16 15 16 16 16 18 18 18 19 19 21 21 19 19 20 20 23 25 25 27 28 29 31 33 33 36 37 37 37 38 38 39 40 39 38 37 35 35 36 36 36 34 33 32 32 34 35 34 33 30 29 28 25 26 30 32 34 37 37 31 30 33 30 27 28 31 29 22 18 15 12 13 15 16 18 17 16 16
23 20 19 18 17 16 16 16 17 16 15 13 13 14 14 15 16 15 16 15 16 19 19 16 16 19 20 20 20 22 25 28 29 28 29 32 34 35 36 37 38 39 41 42 41 40 38 37 38 38 38 36 34 34 34 34 35 35 33 31 31 32 31 31 34 35 36 39 38 32 32 33 25 24 29 32 32 24 16 14 13 14 16 16 17 17 16 17
21 18 17 17 16 16 15 16 16 15 14 12 11 11 11 13 14 13 13 12 12 15 16 15 16 17 17 18 19 20 22 25 24 24 26 28 29 30 32 34 36 37 39 41 41 41 41 41 41 41 40 39 37 37 36 36 35 33 33 33 34 35 35 34 34 36 39 40 39 33 33 35 28 23 27 28 25 19 15 15 14 13 15 15 16 16 16 17
18 15 14 14 15 14 15 16 16 14 12 10 9 10 10 12 12 11 10 10 11 13 16 19 19 15 15 16 17 18 19 20 18 19 22 25 27 27 26 29 32 34 37 39 39 37 38 40 42 42 41 40 39 38 38 38 35 34 36 38 38 36 36 36 36 38 40 42 40 37 36 38 36 31 30 27 23 18 14 14 14 14 13 15 17 18 18 18
15 13 13 13 12 13 13 14 14 13 11 10 9 9 10 10 11 11 10 10 13 18 20 19 14 11 12 14 15 16 16 15 15 17 19 21 22 22 21 26 31 34 36 40 41 39 36 37 40 42 41 41 40 40 41 40 39 40 40 39 39 37 36 38 38 38 39 39 37 35 37 40 40 37 34 31 29 28 22 17 17 17 16 17 18 19 20 19
15 14 14 12 11 11 11 12 12 12 10 9 9 9 10 11 12 13 11 13 17 19 18 14 9 8 11 14 17 16 14 14 13 13 15 16 16 16 19 26 30 31 34 39 41 41 39 36 37 38 38 39 40 41 43 42 41 42 40 38 38 37 37 38 40 40 39 37 34 32 35 39 39 37 35 31 28 29 29 22 20 18 15 16 17 17 20 21
16 15 14 12 11 10 9 10 10 10 9 8 10 11 12 14 15 15 16 19 19 16 14 11 8 9 11 14 15 14 12 13 13 11 11 11 14 18 22 26 27 27 30 34 36 39 40 37 35 35 36 37 38 38 40 41 42 42 40 38 38 37 37 38 39 39 37 34 32 30 33 36 35 34 33 29 23 24 30 29 26 23 19 19 19 15 16 19
16 15 14 12 11 10 9 8 8 8 8 9 11 12 14 16 18 19 20 17 14 14 11 8 8 10 11 12 14 15 15 15 14 13 11 9 12 18 22 25 25 25 27 29 31 35 37 37 37 38 40 39 37 36 36 39 41 41 40 39 40 38 36 36 37 36 33 30 28 26 27 30 30 29 30 30 28 28 32 34 31 28 27 27 25 18 13 16
16 14 12 11 10 8 7 7 7 7 8 9 11 13 15 17 18 18 16 9 7 10 9 8 9 8 7 10 15 16 17 18 15 13 12 10 12 19 22 24 23 24 25 25 27 28 29 32 36 38 36 32 30 31 35 37 35 34 35 36 38 38 36 36 36 32 29 28 28 23 17 17 21 22 22 25 28 28 30 33 32 31 31 33 31 24 18 17
15 13 12 10 8 7 6 5 5 6 8 9 10 12 13 13 14 13 12 8 8 9 9 11 11 9 8 11 15 16 17 20 19 16 15 15 16 22 24 24 24 23 23 23 25 27 25 26 30 34 34 32 31 32 32 34 33 31 29 26 27 30 30 32 35 33 29 26 25 21 13 8 14 17 15 15 19 22 24 28 32 33 32 33 34 30 25 20
15 13 11 9 7 5 3 2 2 3 6 8 9 11 10 9 9 9 10 11 12 12 12 14 13 13 15 13 14 15 17 19 17 15 17 18 21 24 25 27 26 22 21 22 24 27 27 27 27 30 34 35 37 37 27 22 28 33 31 25 23 24 24 25 30 35 34 29 25 23 19 15 12 12 12 12 15 17 17 20 26 31 30 30 33 33 30 26
14 12 10 9 8 6 5 2 2 4 5 7 8 7 6 6 7 8 11 12 12 12 12 13 13 14 18 18 17 19 19 18 15 13 17 22 25 26 27 28 25 21 20 22 24 26 27 29 30 29 31 32 34 32 22 17 21 27 32 32 29 29 28 24 24 30 34 33 29 27 24 18 12 6 10 17 20 18 15 16 20 24 25 27 31 33 32 32
13 11 9 9 10 9 7 5 4 4 4 4 4 2 2 4 5 7 9 9 8 9 9 10 11 11 16 19 18 19 17 16 16 17 20 23 24 25 27 27 26 23 22 24 27 27 28 30 31 31 29 30 32 31 29 30 27 22 30 38 36 34 32 28 26 27 31 34 30 27 25 18 11 5 12 20 21 16 13 13 15 20 22 22 27 31 32 31
11 10 10 10 10 9 8 7 5 4 2 2 2 2 2 2 2 3 5 5 6 8 9 10 10 10 14 16 15 17 16 13 13 18 20 20 20 23 24 26 28 26 24 26 29 28 28 29 31 33 33 33 36 37 37 37 32 25 30 39 41 37 30 26 27 25 26 30 30 26 23 20 17 14 17 17 11 9 13 14 14 19 21 21 25 28 30 28
9 8 9 9 8 6 6 6 5 5 4 4 3 2 2 3 2 3 3 3 4 5 7 9 8 8 11 13 13 13 13 13 11 14 17 18 20 22 22 24 26 26 25 26 27 28 30 31 30 34 38 37 38 40 41 40 36 32 31 36 42 41 30 24 26 26 23 22 24 25 22 22 24 23 22 20 13 6 12 15 13 14 18 23 25 27 29 29
8 7 8 8 8 7 5 2 3 5 5 4 2 2 2 2 1 3 3 3 4 5 6 5 4 5 8 11 12 10 10 12 13 16 17 17 21 22 21 23 25 24 24 25 26 29 32 35 33 33 36 38 38 38 40 39 38 37 35 36 42 43 36 30 29 31 29 20 15 22 24 23 24 24 20 25 25 17 15 17 13 14 21 27 27 28 31 31
8 8 9 8 8 8 6 3 3 4 4 3 2 2 2 1 1 1 2 3 3 4 5 4 3 6 8 10 12 12 13 14 15 18 18 20 24 23 21 24 26 25 25 25 27 29 32 37 38 35 35 37 38 38 38 37 37 39 39 41 46 44 38 36 36 35 35 30 25 27 30 25 22 24 24 23 27 27 27 27 23 23 31 35 33 32 32 31
8 8 9 9 8 8 7 5 4 4 4 3 3 2 2 1 1 2 1 2 3 5 7 7 7 9 10 11 13 15 16 17 18 20 20 23 27 25 23 27 29 29 30 29 30 31 32 36 37 38 39 38 39 42 42 41 40 40 39 41 48 48 40 39 41 40 40 40 37 35 37 33 27 27 29 26 26 29 30 29 25 24 28 31 34 35 33 31
9 9 9 9 9 8 8 6 5 4 4 4 4 4 3 3 3 3 4 5 6 7 9 10 11 12 14 14 16 18 18 19 21 22 23 25 28 27 28 32 33 34 34 35 35 35 36 37 36 39 41 40 42 45 46 46 46 46 44 42 47 52 49 45 44 44 45 46 44 39 41 41 36 34 35 33 30 30 32 34 31 28 28 29 29 33 36 35
9 10 11 10 9 9 8 8 6 5 5 5 5 5 5 5 5 5 6 8 9 9 11 13 14 15 16 17 18 19 20 21 22 23 24 25 26 27 29 34 36 37 38 39 40 40 40 39 39 41 42 42 45 48 49 49 49 50 49 46 46 51 53 52 49 47 48 48 47 43 42 43 43 41 41 40 38 35 33 35 35 32 31 32 30 31 36 38
10 10 11 11 11 11 9 7 6 6 7 7 7 7 7 7 8 8 9 10 11 12 14 15 16 17 18 19 19 20 21 22 22 23 23 23 23 24 26 30 33 35 36 38 41 43 43 42 43 44 44 44 47 50 51 51 50 50 51 49 48 50 53 55 53 51 50 49 48 46 43 44 46 47 45 43 44 44 39 35 34 33 34 37 35 33 36 38
12 12 12 11 11 11 10 8 6 7 8 8 9 9 9 9 10 11 12 13 14 15 15 16 17 17 18 18 19 19 20 20 20 19 18 16 17 19 19 21 26 29 29 29 33 39 43 44 45 47 48 48 49 51 51 53 53 53 52 50 49 50 53 55 54 52 52 51 50 49 45 45 48 50 50 47 47 50 46 39 36 35 37 39 36 34 35 38
14 14 13 12 10 9 9 9 8 8 8 9 9 10 11 12 12 13 14 15 15 16 16 16 16 16 17 18 18 18 18 16 14 13 12 12 14 16 16 16 18 21 22 21 22 28 34 39 42 46 50 51 51 52 53 53 55 56 54 53 50 49 52 54 52 53 55 54 53 52 47 44 48 53 53 51 50 51 49 45 43 41 40 39 37 36 36 36
17 17 15 13 11 9 9 9 9 9 9 9 10 11 12 13 14 15 15 15 15 15 15 15 15 15 16 16 16 16 15 13 12 11 11 12 12 14 15 15 16 18 19 20 19 20 24 31 36 40 46 49 49 50 53 54 57 58 57 55 52 50 53 54 51 54 58 58 57 56 47 40 45 53 56 56 55 54 51 49 48 46 44 43 41 39 37 36
17 17 17 14 12 10 9 9 9 9 9 10 11 12 13 14 14 15 15 15 15 15 15 14 14 14 14 15 15 15 14 12 12 11 11 11 12 13 13 14 14 16 17 20 21 20 21 25 30 35 41 43 42 44 49 53 57 59 58 56 55 53 53 53 51 53 59 61 59 59 52 44 45 53 58 60 61 60 56 53 52 50 47 47 45 42 39 36
Wind_Direction
290 287 284 281 278 275 273 271 269 267 265 263 262 261 260 259 258 258 257 257 257 257 257 255 254 255 255 251 246 242 240 240 242 244 242 238 232 229 228 226 227 229 229 230 231 231 231 230 230 232 233 234 236 235 234 236 239 242 244 238 238 244 249 269 284 317 339 310 301 261 205 188 176 185 192 193 191 164 147 150 131 124 136 133 125 133 107 62
294 290 287 284 281 278 275 272 270 268 266 264 262 261 259 257 256 255 255 254 254 254 253 253 252 252 253 253 250 245 241 240 242 244 243 241 237 233 230 228 228 229 230 230 232 232 233 233 232 233 234 235 236 237 236 234 237 240 244 240 234 240 244 256 266 310 338 282 293 275 235 207 182 186 188 176 178 169 156 150 135 138 137 121 117 125 92 33
293 291 288 286 283 281 277 274 271 268 266 264 262 261 259 257 255 254 253 252 252 252 251 250 250 250 249 250 250 248 244 240 243 243 241 242 242 237 233 231 231 230 230 230 231 233 235 235 235 236 236 238 238 238 238 236 238 239 241 240 232 235 239 249 258 281 326 261 294 311 267 229 196 183 193 181 184 189 175 153 146 148 133 122 129 133 114 357
287 285 284 283 282 280 278 275 272 268 265 262 261 259 258 256 255 254 252 251 250 250 250 250 248 247 247 246 246 247 245 240 243 243 239 242 245 242 236 234 234 232 231 231 232 232 233 235 235 236 237 240 240 240 240 236 237 237 238 241 238 236 239 248 253 264 288 279 270 327 313 255 214 186 198 208 204 200 183 159 152 149 133 136 145 145 145 339
285 282 280 278 277 276 275 274 272 269 266 262 259 258 256 255 254 253 252 251 250 248 248 249 248 246 245 245 244 243 243 238 243 245 239 241 245 244 240 236 236 235 232 232 231 231 231 233 234 235 236 237 240 242 241 235 234 236 237 240 240 234 234 241 247 257 272 282 282 299 308 277 217 190 197 218 213 201 187 166 157 150 138 153 163 157 163 238
288 285 281 277 274 272 270 270 269 267 265 263 259 257 255 254 252 251 250 250 250 248 246 247 247 246 244 243 242 241 240 234 241 246 240 240 243 242 241 238 237 237 234 233 231 231 231 231 232 233 234 235 237 240 242 239 234 234 234 238 238 231 228 232 236 249 263 272 277 274 286 266 219 210 207 221 222 210 194 175 168 159 149 168 177 169 177 186
289 287 284 280 276 272 269 267 265 264 263 262 260 258 256 254 252 250 249 248 248 249 247 246 245 246 245 244 243 241 239 232 239 246 239 238 240 240 241 239 239 239 236 234 233 232 231 231 232 232 233 234 234 235 239 240 237 234 231 236 239 235 231 231 231 233 245 260 263 260 274 257 234 233 222 220 212 204 199 187 173 165 164 172 185 189 182 178
287 285 284 282 279 275 271 268 265 263 261 260 259 258 257 255 253 252 250 247 246 247 247 246 244 244 244 244 243 241 238 229 236 243 237 236 239 238 240 239 239 239 238 236 234 234 232 232 232 232 233 234 233 232 234 237 237 235 233 233 236 236 232 232 235 233 235 246 250 249 259 258 247 247 240 220 207 202 199 192 163 152 170 174 184 206 195 181
286 284 282 280 278 276 273 270 266 264 261 259 258 257 256 255 254 253 252 250 248 246 245 246 244 243 242 243 243 241 238 225 231 241 237 235 237 236 238 237 237 239 239 237 235 235 233 231 231 231 230 231 232 232 233 235 234 232 232 232 231 232 231 229 236 238 237 240 246 247 250 253 246 247 243 220 213 205 192 201 173 151 171 186 192 212 216 213
285 283 281 279 276 274 272 270 267 264 262 259 258 257 256 255 254 253 253 252 250 248 246 245 244 243 242 241 242 241 238 226 229 240 238 235 236 234 235 235 236 238 238 237 235 233 233 232 230 230 230 232 233 235 237 235 232 229 231 235 234 235 234 230 233 236 235 237 249 255 254 251 247 250 244 225 219 202 193 216 205 176 194 206 206 217 229 238
286 284 281 279 277 274 271 269 267 264 262 260 258 256 255 254 253 253 252 252 251 250 249 247 245 244 242 241 241 237 236 229 228 237 238 235 236 234 234 235 235 236 237 237 235 233 233 233 232 231 232 234 234 238 241 240 238 235 238 243 247 250 245 235 237 240 235 231 241 255 258 254 257 265 256 237 227 213 214 219 204 209 219 217 213 221 234 238
288 285 282 279 277 274 272 269 266 264 262 260 258 256 254 253 252 251 251 251 251 251 250 249 247 245 243 242 240 234 233 232 230 235 238 235 235 234 233 233 234 235 236 236 235 233 232 233 234 233 233 234 233 234 237 239 240 241 245 249 251 257 253 237 241 249 247 235 233 248 253 249 252 262 261 246 227 223 227 205 193 210 219 220 219 228 238 234
288 285 282 279 276 274 272 269 267 265 263 261 258 256 254 252 251 250 249 249 249 250 250 249 248 247 246 244 241 235 233 234 232 234 236 234 234 234 232 231 232 233 234 236 235 234 233 233 234 234 234 235 235 236 236 234 234 235 241 245 245 247 253 239 237 250 255 243 233 242 247 247 249 252 257 249 226 221 222 195 186 207 213 220 226 234 239 230
286 284 281 278 276 273 271 269 267 265 263 261 260 257 255 253 251 249 248 248 247 248 248 249 249 248 247 246 244 239 235 235 233 232 233 233 232 233 232 230 230 231 233 234 235 235 234 232 232 234 235 235 237 240 240 237 236 237 241 244 244 246 254 244 232 240 255 254 243 241 245 251 256 257 260 255 234 223 220 197 185 203 210 217 232 237 237 232
285 283 281 279 276 273 271 269 267 264 262 261 260 259 256 254 252 250 249 248 247 246 247 247 247 247 247 246 245 242 238 235 234 232 232 232 232 231 231 230 229 230 231 233 234 234 235 233 232 233 234 234 235 238 239 237 237 241 247 249 247 245 245 247 240 233 247 259 255 246 248 253 259 268 268 257 241 228 223 206 186 202 214 219 231 235 236 238
286 284 283 281 278 275 272 270 267 265 262 260 259 257 256 255 253 251 250 249 248 247 246 246 246 246 245 245 245 244 241 237 235 234 232 232 232 231 231 230 230 230 231 233 234 234 235 234 232 231 232 233 233 235 236 236 237 238 242 245 245 242 238 243 251 244 247 259 261 254 254 254 253 262 264 258 249 236 226 213 195 203 216 223 228 235 241 245
287 285 284 283 280 278 275 272 269 266 264 261 259 256 255 254 253 251 250 249 248 247 247 246 245 245 244 244 245 244 243 240 237 235 234 233 233 232 232 231 231 231 231 231 232 233 234 234 232 230 231 231 231 233 234 236 239 236 234 234 236 237 234 234 244 254 255 261 267 261 253 253 251 252 257 256 253 243 230 220 208 205 210 221 227 232 243 248
287 285 284 283 281 279 277 274 271 269 266 264 261 258 255 253 251 250 249 248 248 247 246 245 245 244 243 243 243 243 243 241 238 236 236 234 233 233 232 231 230 229 230 231 231 232 233 233 232 230 230 230 232 235 233 233 235 233 227 223 227 232 232 230 229 245 259 269 273 264 253 256 258 252 253 251 246 241 239 233 224 218 214 219 224 227 234 242
288 285 283 283 282 279 277 275 273 270 267 266 263 260 257 255 252 250 249 248 247 246 245 245 244 245 243 242 243 242 242 242 240 237 236 236 235 233 232 231 230 229 229 230 231 231 232 232 231 230 230 231 234 235 229 229 232 231 224 216 214 218 225 231 223 212 254 281 277 266 257 262 258 252 252 251 247 239 239 242 232 227 225 226 231 232 229 230
291 288 284 282 281 280 278 275 272 270 268 266 265 262 260 257 253 252 251 249 248 246 245 244 244 244 243 242 243 242 241 242 240 238 236 235 235 234 232 231 231 230 230 229 230 231 231 231 231 230 229 228 230 229 224 225 230 230 227 222 213 206 205 221 221 191 185 258 270 274 276 272 264 261 257 250 251 247 242 245 238 229 226 230 237 235 228 225
291 289 285 283 281 280 279 276 273 271 269 268 267 265 263 260 256 254 252 251 249 247 246 244 243 243 243 242 242 241 240 240 239 237 236 235 235 234 232 232 232 231 230 230 229 230 231 230 230 229 227 226 225 223 221 223 226 228 229 227 220 210 197 200 206 175 168 228 259 273 282 280 275 275 263 245 246 249 242 241 241 233 225 229 234 232 230 226
290 287 284 281 279 278 278 277 274 272 270 268 267 266 265 262 259 256 254 252 251 249 247 245 243 243 242 241 241 241 241 240 238 236 235 235 234 234 233 232 232 231 230 230 229 230 231 230 228 227 225 224 223 222 221 221 223 225 228 228 226 219 203 195 184 159 164 216 246 265 281 290 285 265 251 248 243 243 242 241 241 235 228 229 232 232 233 228
291 286 282 279 277 276 276 275 275 274 271 269 267 266 264 262 260 258 255 254 252 250 249 246 244 243 243 242 241 241 240 240 238 235 234 235 234 232 232 233 232 232 231 230 231 231 230 230 227 225 224 224 223 222 220 221 221 223 227 228 230 227 211 199 181 163 175 210 234 260 273 284 281 254 236 259 251 243 242 240 238 236 235 235 236 236 232 226
295 289 284 280 277 275 274 273 273 273 272 269 267 265 264 262 260 257 254 254 252 250 250 248 246 245 244 243 241 241 241 241 238 235 234 234 234 232 232 233 233 232 232 231 232 232 230 227 225 223 222 222 222 222 221 221 221 223 227 228 228 227 215 206 192 177 183 199 227 256 259 268 272 263 263 274 264 253 245 238 237 239 242 242 244 244 234 226
300 293 287 282 278 275 273 272 272 272 272 271 267 264 263 261 259 257 254 253 251 249 249 248 248 247 246 245 243 241 241 241 239 236 235 235 234 232 232 232 234 234 233 232 232 232 231 228 226 224 221 221 221 221 221 221 221 222 225 226 225 224 217 209 200 186 180 183 209 228 232 252 264 267 276 277 271 265 250 240 240 240 240 241 240 240 234 227
303 297 290 283 278 276 273 272 271 271 272 273 269 265 262 260 260 258 255 253 250 247 247 246 246 247 246 244 243 241 241 241 239 238 236 235 234 233 231 231 232 233 234 233 232 231 231 229 228 226 223 222 221 221 222 221 222 222 222 223 221 221 222 217 211 196 179 171 188 210 218 233 249 260 270 271 271 265 246 235 239 241 240 238 236 234 232 229
305 299 291 283 278 275 272 271 272 272 272 273 270 264 260 258 259 258 255 254 250 247 246 244 242 242 242 243 242 241 241 240 240 239 237 236 235 234 233 231 230 231 231 232 232 231 231 231 230 228 225 223 221 221 222 223 223 223 222 222 220 216 219 220 219 211 195 183 186 198 208 221 236 249 256 260 260 251 237 228 231 242 243 241 239 235 234 236
307 300 291 282 276 272 269 270 272 275 276 274 269 263 255 251 252 252 251 252 251 247 243 240 239 237 238 241 242 240 239 239 238 238 237 236 235 234 233 232 230 230 230 229 229 228 228 229 230 230 227 225 224 222 222 223 224 224 222 222 221 215 212 215 215 215 211 202 198 197 196 208 232 245 246 251 249 235 225 223 229 243 244 245 243 237 240 241
308 301 291 283 275 269 268 270 273 279 281 277 268 260 251 245 242 243 246 250 249 247 244 238 235 237 238 238 240 240 238 238 238 237 236 236 236 234 234 232 231 231 232 231 230 228 225 225 226 227 227 225 225 224 223 223 224 225 223 221 222 220 214 214 213 212 214 214 213 208 196 199 221 244 245 247 245 236 225 223 234 246 247 247 242 233 236 238
311 303 292 285 277 269 266 268 274 282 284 276 260 250 243 238 235 236 242 241 239 248 252 244 232 234 240 238 238 241 240 240 240 238 236 235 236 235 234 233 231 230 232 232 233 234 232 229 227 225 225 223 222 223 223 223 223 225 225 222 223 225 222 218 218 216 216 218 220 217 208 203 206 222 237 240 239 241 241 237 234 239 245 244 240 236 235 234
317 309 299 290 282 273 266 268 273 279 280 269 249 239 232 228 226 228 233 227 231 247 250 244 238 236 243 245 240 239 243 244 242 240 237 235 236 236 233 231 228 227 229 229 229 233 236 236 234 231 228 226 224 223 224 223 223 222 222 221 220 223 226 227 225 224 223 224 222 219 217 217 214 217 230 238 240 243 246 246 237 227 233 244 246 244 239 235
322 317 309 300 290 280 271 268 270 274 272 255 239 229 219 215 211 210 215 216 226 237 239 242 246 239 239 246 241 233 234 237 236 237 237 235 237 237 232 229 227 225 225 226 225 225 228 233 236 236 234 232 228 227 226 224 224 225 224 223 222 221 224 229 231 231 232 233 232 227 226 231 234 233 235 243 254 258 257 254 248 240 239 246 249 246 240 236
320 317 313 307 298 287 276 268 266 267 261 242 231 220 207 204 196 192 207 220 225 236 243 247 253 241 230 234 239 237 234 234 235 238 240 238 234 227 225 228 229 227 225 226 227 224 223 225 231 235 236 235 232 230 230 227 226 229 229 228 228 225 223 227 232 234 234 237 239 237 235 238 244 245 243 244 254 263 263 255 251 252 244 235 239 243 241 235
317 315 312 308 302 293 281 271 264 259 248 230 223 216 206 199 189 190 209 219 223 233 244 248 247 242 232 230 241 248 244 237 236 236 238 237 225 220 228 232 230 230 230 229 230 228 224 221 222 228 230 231 232 232 233 231 229 229 230 231 231 230 228 228 233 237 238 239 243 245 244 244 246 248 249 243 235 245 256 253 249 250 243 236 236 235 234 233
320 318 315 311 305 297 286 274 263 253 242 226 217 213 209 203 200 210 223 224 227 237 246 249 237 232 231 229 235 244 244 238 232 233 233 225 215 219 233 238 232 230 231 228 229 230 226 219 216 221 226 228 231 234 234 235 235 233 231 231 231 231 231 231 233 238 239 237 239 243 248 249 249 251 254 250 235 232 246 253 251 247 244 244 243 234 230 238
329 326 322 317 312 301 287 273 262 251 240 228 219 214 213 212 213 224 237 233 215 225 233 233 225 221 233 237 234 236 242 239 232 229 217 197 211 225 231 237 234 230 229 225 226 227 223 220 219 221 221 218 222 231 234 233 235 237 235 234 234 233 234 234 233 233 234 233 231 231 242 261 264 258 260 263 254 240 241 250 252 250 249 251 250 243 241 245
340 335 330 328 323 310 298 282 265 245 232 222 217 220 221 224 226 233 244 229 202 213 218 223 219 189 188 230 239 237 240 242 238 229 212 197 215 234 236 236 234 230 227 225 227 226 218 216 221 223 217 206 207 220 229 231 229 228 228 230 234 236 237 238 235 228 224 223 224 220 214 242 272 273 272 278 275 262 252 251 251 250 251 255 254 249 248 246
346 344 344 346 342 336 339 307 248 215 218 207 206 222 230 237 239 233 231 218 213 225 227 234 226 185 184 218 239 240 237 237 233 219 211 211 222 236 242 239 236 232 230 227 228 229 221 208 208 218 220 213 213 218 223 234 233 226 219 214 218 225 228 233 235 233 225 217 216 213 203 202 230 269 293 300 297 293 282 267 259 254 250 251 252 250 246 237
354 359 4 8 13 21 34 48 155 161 187 195 202 223 231 235 232 219 219 216 216 224 229 240 230 192 197 216 229 243 240 233 231 212 211 224 231 238 246 247 243 235 230 228 226 225 222 209 199 206 217 216 215 212 205 211 223 221 214 207 208 216 217 218 226 232 230 224 218 214 209 203 199 233 293 292 289 296 297 284 274 267 256 246 247 249 245 238
5 17 23 30 41 46 55 71 102 127 165 193 201 218 202 211 212 206 217 214 205 212 213 229 234 213 214 219 227 247 247 237 234 216 213 229 237 239 245 250 251 241 229 230 228 224 223 216 204 201 209 211 206 194 185 196 206 205 201 199 202 212 215 216 221 225 226 225 221 216 212 198 167 192 262 269 272 280 285 283 277 273 265 249 243 245 246 247
15 29 36 42 50 58 69 75 77 89 99 92 94 98 112 134 165 185 205 195 188 205 205 210 221 217 219 226 237 250 255 256 239 215 219 241 248 243 242 245 248 245 235 233 234 231 229 224 212 203 203 206 207 199 191 196 201 198 197 196 198 203 207 215 221 223 225 223 218 211 200 183 177 211 243 246 251 267 273 279 276 268 265 251 239 238 241 244
12 26 39 41 43 52 70 78 78 83 80 70 70 80 93 95 124 161 175 186 195 220 227 224 226 222 227 241 251 255 263 276 265 238 242 255 254 250 248 246 246 246 242 237 236 236 235 231 219 210 206 205 213 214 207 204 201 199 201 198 196 197 198 208 216 215 215 217 217 210 188 172 183 204 226 227 211 222 264 272 277 266 257 251 242 237 235 232
4 16 29 30 32 30 26 49 81 76 67 63 59 41 56 83 159 167 150 171 202 222 233 234 234 237 241 250 259 263 263 268 266 258 259 261 258 255 254 253 252 249 245 242 239 236 236 236 227 219 215 211 214 221 220 216 208 201 199 194 194 195 197 205 212 208 202 189 196 211 192 173 180 186 201 219 214 204 210 212 205 203 215 227 235 238 236 226
0 12 14 12 22 17 356 355 31 40 38 30 23 12 4 22 220 197 160 179 217 246 258 267 262 249 249 257 269 274 269 267 266 263 265 267 266 263 261 263 262 255 249 246 242 236 235 238 233 226 222 218 218 221 223 223 216 207 201 193 191 194 199 207 208 205 200 183 179 198 190 176 185 181 175 197 209 206 200 192 189 196 204 213 220 227 232 228
357 3 2 360 0 351 345 357 355 355 7 350 332 329 309 285 241 239 242 245 262 276 280 287 288 280 276 277 279 278 274 274 274 272 271 272 273 273 270 269 268 263 257 252 248 242 237 239 237 232 226 221 220 221 221 222 221 218 214 201 194 195 202 208 205 199 196 185 181 190 184 180 197 192 178 185 194 195 197 198 203 210 210 213 217 216 219 225
350 349 347 350 349 337 332 330 322 330 341 323 308 300 290 283 269 263 270 274 281 287 288 290 291 289 288 284 282 282 280 279 278 277 276 275 277 277 271 270 269 265 262 259 254 249 244 241 239 236 232 225 223 224 224 225 226 224 222 212 202 199 203 206 204 200 198 188 181 185 182 184 200 197 187 194 197 189 193 201 206 210 209 207 209 208 208 214
339 337 335 337 340 336 321 302 303 327 326 311 307 303 292 284 283 283 282 283 289 292 292 292 290 288 288 286 284 283 281 279 278 278 277 275 275 273 269 268 267 264 264 262 257 254 249 245 241 239 236 230 227 226 226 226 228 228 225 219 210 206 206 207 204 202 202 194 183 183 185 190 201 199 192 198 202 196 194 200 207 211 209 204 206 209 208 209
338 333 332 331 334 340 332 308 306 325 323 316 312 304 295 290 292 295 293 292 294 295 294 294 292 290 288 286 285 284 282 281 281 280 278 275 272 270 269 269 267 265 264 263 260 256 251 248 246 242 237 232 230 229 227 227 228 230 229 224 216 210 210 213 209 204 204 200 189 186 190 193 200 203 198 198 201 201 198 200 205 207 204 203 205 211 212 210
343 335 329 326 328 335 340 335 328 327 325 322 317 312 308 304 304 305 302 299 298 297 296 294 292 290 290 289 288 287 286 286 284 280 278 275 270 269 271 273 273 271 270 269 266 261 254 250 248 246 240 235 232 230 229 228 227 228 230 230 224 216 214 216 214 209 208 204 194 190 192 196 201 203 201 200 200 200 202 202 201 200 201 204 206 210 212 210
0 351 338 331 329 332 336 337 332 326 324 321 317 316 313 310 310 310 306 303 300 298 295 294 294 293 294 293 292 293 294 290 281 273 272 274 274 273 275 279 282 281 281 284 280 271 262 255 251 248 243 239 236 233 229 228 228 226 227 229 230 225 220 219 217 214 213 208 198 194 197 204 207 204 201 201 200 201 204 204 201 199 200 203 206 210 211 211
15 12 4 351 340 333 330 332 333 331 328 322 318 317 316 315 313 309 306 303 300 298 297 297 298 299 298 299 299 299 298 286 266 260 272 279 280 281 282 284 288 288 287 288 290 287 277 264 257 253 246 241 240 236 231 227 227 226 225 225 227 228 225 222 217 214 214 212 203 198 202 211 213 206 201 201 203 205 206 203 201 200 199 199 203 208 211 211
20 22 20 14 5 356 351 350 345 338 332 328 326 325 322 319 315 310 308 306 302 300 300 300 301 301 301 303 301 297 292 277 259 260 276 283 281 283 285 286 289 289 287 285 284 286 284 273 262 257 251 246 244 241 235 229 226 224 223 223 224 226 228 226 219 213 214 214 208 202 205 215 217 211 205 201 203 207 205 202 201 201 200 199 201 206 210 211